Location: Lourdes
(43.1000°N, 0.0500°W)
Time: 05:12:14
(UTC+00:00)

USA 215 - Pass Details

Date: 30 November 2020
Orbit: 1098 x 1110 km, 123.0° (Epoch: 22 January)

Event Time Altitude Azimuth Distance (km) Brightness Sun altitude
Exits shadow 19:31:11 56° 346° (NNW) 1,305 3.6 -33.1°
Maximum altitude 19:31:39 57° 328° (NNW) 1,289 3.6 -33.2°
Drops below altitude 10° 19:38:03 10° 252° (WSW) 2,970 6.2 -34.3°
Sets 19:40:34 0° 249° (WSW) 3,926 7.0 -34.8°
